Weather History for KMCI - March, 2014

Change the Weather History Date:

Saturday, March 1, 2014

  Actual Average Record
Temperature  
Mean Temperature 19 °F 39 °F  
Max Temperature 32 °F 49 °F 79 °F (1992)
Min Temperature 5 °F 28 °F -1 °F (1962)
Degree Days  
Heating Degree Days 46 26  
Month to date heating degree days 46 26  
Since 1 July heating degree days 4612 4071  
Cooling Degree Days 0 0  
Month to date cooling degree days 0 0  
Year to date cooling degree days 0 0  
Moisture  
Dew Point 9 °F    
Average Humidity 72    
Maximum Humidity 88    
Minimum Humidity 56    
Precipitation  
Precipitation 0.17 in 0.06 in 0.99 in (1991)
Month to date precipitation 0.17 0.06  
Year to date precipitation 1.92 2.59  
Snow  
Snow 1.00 in 0.10 in 4.60 in (1953)
Month to date snowfall 1.0 0.1  
Since 1 July snowfall 23.6 16.3  
Snow Depth 1.00 in    
Sea Level Pressure  
Sea Level Pressure 30.27 in    
Wind  
Wind Speed 17 mph (NNE)    
Max Wind Speed 24 mph    
Max Gust Speed 29 mph    
Visibility 5 miles    
Events Snow    
T = Trace of Precipitation, MM = Missing Value Source: NWS Daily Summary

Daily Weather History Graph

Daily Weather History Graph

Search for Another Location

Airport or City:

Trip Planner

Search our weather history database for the weather conditions in past years. The results will help you decide how hot, cold, wet, or windy it might be!

Date:

Astronomy

Mar. 01, 2014 Rise Set
Actual Time 6:51 AM CST 6:11 PM CST
Civil Twilight 6:24 AM CST 6:38 PM CST
Nautical Twilight 5:53 AM CST 7:09 PM CST
Astronomical Twilight 5:22 AM CST 7:40 PM CST
Moon 6:46 AM CST (3/1) 6:59 PM CST (3/1)
Length of Visible Light 12h 13m
Length of Day
11h 19m
New Moon, 0% of the Moon is Illuminated
Mar 1
New Moon
Mar 8
First Quarter
Mar 16
Full
Mar 23
Last Quarter
Mar 30
New

Hourly Weather History & Observations

Time (CST) Temp. Windchill Dew Point Humidity Pressure Visibility Wind Dir Wind Speed Gust Speed Precip Events Conditions
12:53 AM 28.9 °F 15.8 °F 21.9 °F 75% 30.06 in 10.0 mi North 20.7 mph 25.3 mph N/A   Overcast
1:53 AM 28.0 °F 16.5 °F 19.9 °F 72% 30.09 in 10.0 mi North 15.0 mph - N/A   Overcast
2:32 AM 27.0 °F 15.2 °F 19.9 °F 75% 30.07 in 10.0 mi North 15.0 mph - N/A   Overcast
2:53 AM 27.0 °F 14.7 °F 19.9 °F 75% 30.09 in 10.0 mi NNE 16.1 mph - N/A   Overcast
3:53 AM 25.0 °F 13.1 °F 18.0 °F 75% 30.14 in 10.0 mi North 13.8 mph - N/A   Overcast
4:53 AM 24.1 °F 10.6 °F 17.1 °F 75% 30.14 in 10.0 mi North 17.3 mph - N/A   Overcast
5:53 AM 23.0 °F 10.1 °F 16.0 °F 74% 30.20 in 10.0 mi North 15.0 mph 24.2 mph N/A   Overcast
6:53 AM 21.9 °F 8.7 °F 15.1 °F 75% 30.20 in 10.0 mi NNE 15.0 mph - 0.00 in   Light Freezing Drizzle
7:53 AM 23.0 °F 10.6 °F 15.1 °F 72% 30.22 in 10.0 mi NNE 13.8 mph - 0.00 in   Light Freezing Drizzle
8:11 AM 21.9 °F 7.8 °F 14.0 °F 72% 30.20 in 10.0 mi North 17.3 mph - 0.00 in   Overcast
8:53 AM 21.0 °F 7.6 °F 10.9 °F 65% 30.23 in 10.0 mi NNE 15.0 mph - 0.00 in   Overcast
9:53 AM 19.9 °F 5.2 °F 7.0 °F 57% 30.27 in 10.0 mi NNE 17.3 mph - N/A   Overcast
10:53 AM 19.0 °F 4.5 °F 8.1 °F 62% 30.30 in 10.0 mi North 16.1 mph - N/A   Overcast
11:53 AM 18.0 °F 2.6 °F 7.0 °F 62% 30.30 in 10.0 mi NNE 17.3 mph - N/A   Overcast
12:53 PM 18.0 °F 3.1 °F 7.0 °F 62% 30.30 in 10.0 mi NNE 16.1 mph - N/A   Overcast
1:53 PM 17.1 °F 0.6 °F 9.0 °F 71% 30.28 in 7.0 mi NNE 19.6 mph - 0.00 in Snow Light Snow
2:53 PM 17.1 °F 2.0 °F 9.0 °F 71% 30.28 in 4.0 mi North 16.1 mph - 0.00 in Snow Light Snow
3:53 PM 16.0 °F -1.3 °F 8.1 °F 71% 30.29 in 6.0 mi NNE 20.7 mph - 0.00 in Snow Light Snow
4:53 PM 15.1 °F -0.6 °F 9.0 °F 77% 30.28 in 3.0 mi NNE 16.1 mph 23.0 mph 0.01 in Snow Light Snow
5:27 PM 14.0 °F -4.3 °F 8.1 °F 77% 30.24 in 2.5 mi NNE 21.9 mph - 0.00 in Snow Light Snow
5:35 PM 14.0 °F -2.0 °F 8.1 °F 77% 30.24 in 3.0 mi NNE 16.1 mph - 0.00 in Snow Light Snow
5:49 PM 14.0 °F -3.0 °F 8.6 °F 79% 30.23 in 2.5 mi North 18.4 mph - 0.00 in Snow Light Snow
5:53 PM 12.9 °F -4.4 °F 8.1 °F 81% 30.30 in 2.5 mi North 18.4 mph - 0.00 in Snow Light Snow
6:00 PM 12.9 °F -3.9 °F 8.1 °F 81% 30.27 in 1.5 mi North 17.3 mph 23.0 mph 0.00 in Snow Light Snow
6:28 PM 12.9 °F -4.4 °F 7.0 °F 77% 30.25 in 1.5 mi NNE 18.4 mph 27.6 mph 0.00 in Snow Light Snow
6:53 PM 12.0 °F -6.0 °F 7.0 °F 80% 30.32 in 4.0 mi NNE 19.6 mph 27.6 mph 0.00 in Snow Light Snow
7:21 PM 12.0 °F -5.1 °F 7.0 °F 80% 30.29 in 2.0 mi NNE 17.3 mph 24.2 mph 0.00 in Snow Light Snow
7:53 PM 10.9 °F -7.9 °F 6.1 °F 81% 30.33 in 3.0 mi NNE 20.7 mph 28.8 mph 0.00 in Snow Light Snow
8:05 PM 10.9 °F -5.9 °F 6.1 °F 81% 30.30 in 2.5 mi NNE 16.1 mph - 0.00 in Snow Light Snow
8:17 PM 10.9 °F -7.5 °F 6.1 °F 81% 30.31 in 3.0 mi NNE 19.6 mph 27.6 mph 0.00 in Snow Light Snow
8:28 PM 10.9 °F -5.9 °F 6.1 °F 81% 30.32 in 2.5 mi North 16.1 mph 26.5 mph 0.00 in Snow Light Snow
8:53 PM 10.9 °F -7.0 °F 6.1 °F 81% 30.40 in 2.0 mi NNE 18.4 mph - 0.00 in Snow Light Snow
9:11 PM 10.0 °F -7.6 °F 5.0 °F 80% 30.33 in 2.0 mi North 17.3 mph - 0.00 in Snow Light Snow
9:30 PM 9.0 °F -9.5 °F 5.0 °F 84% 30.33 in 2.0 mi NNE 18.4 mph - 0.00 in Snow Light Snow
9:46 PM 9.0 °F -7.9 °F 3.9 °F 80% 30.34 in 2.0 mi NNE 15.0 mph - 0.00 in Snow Light Snow
9:53 PM 9.0 °F -10.0 °F 3.9 °F 80% 30.40 in 1.8 mi NNE 19.6 mph 25.3 mph 0.01 in Snow Light Snow
10:39 PM 8.1 °F -10.2 °F 1.9 °F 76% 30.38 in 0.8 mi North 17.3 mph - 0.04 in Snow Light Snow
10:53 PM 7.0 °F -12.1 °F 3.0 °F 84% 30.43 in 1.0 mi North 18.4 mph 24.2 mph 0.06 in Snow Light Snow
11:07 PM 7.0 °F -12.1 °F 1.9 °F 80% 30.35 in 0.8 mi North 18.4 mph - 0.01 in Snow Light Snow
11:40 PM 6.1 °F -14.8 °F -0.0 °F 76% 30.36 in 1.0 mi NNE 21.9 mph 27.6 mph 0.05 in Snow Light Snow
11:47 PM 5.0 °F -14.7 °F -0.4 °F 78% 30.37 in 0.8 mi North 18.4 mph 28.8 mph 0.07 in Snow Light Snow
11:53 PM 5.0 °F -13.6 °F -0.0 °F 80% 30.43 in 0.8 mi North 16.1 mph - 0.09 in   Heavy Ice Pellets